Voltar ao catálogo

COSMOS 1052

AtivoMilitarLEO
NORAD 11129·PAYLOAD·🇷🇺 Russia

Lançado Dec 5, 1978 de Plesetsk Cosmodrome

Loading…

Próximas Passagens (próximas 24 horas)

TLE

AtualizadoSource: Space-Track

Época: Sep 14, 2026, 08:21 UTC

1 11129U 78109B   26257.34844601 -.00000024  00000-0 -48866-4 0  9995
2 11129  74.0185  31.8462 0049501  14.2487  13.1459 12.53729999186497

Acompanhe COSMOS 1052 em tempo real com AllMySat

Download on the App Store